This is the latest recevied weather packets stored in our database for station/object KC3QLX. If no packets are shown the sender has not sent any weather packets the latest 10 day(s).
| Time | Temp. | Humidity | Pressure | Rain* | Wind** | Luminosity | Snow |
|---|---|---|---|---|---|---|---|
| 1777698397 | 8.33° C | 99% | 1012.5 hPa | 0 mm | - | 0 W/m² | - |
| 1777698093 | 8.33° C | 99% | 1012.3 hPa | 0 mm | - | 0 W/m² | - |
| 1777697790 | 8.33° C | 99% | 1012.3 hPa | 0 mm | - | 0 W/m² | - |
| 1777697488 | 8.33° C | 99% | 1012.6 hPa | 1.78 mm | - | 0 W/m² | - |
| 1777697184 | 8.33° C | 99% | 1012.3 hPa | 4.83 mm | - | 0 W/m² | - |
| 1777696880 | 8.33° C | 99% | 1012.5 hPa | 6.1 mm | - | 0 W/m² | - |
| 1777696578 | 8.89° C | 99% | 1012.6 hPa | 4.83 mm | - | 0 W/m² | - |
| 1777696269 | 8.33° C | 99% | 1012.7 hPa | 1.78 mm | - | 0 W/m² | - |
| 1777695969 | 8.33° C | 99% | 1012.8 hPa | 1.27 mm | - | 0 W/m² | - |
| 1777695667 | 8.89° C | 99% | 1012.6 hPa | 1.27 mm | - | 0 W/m² | - |
| 1777695364 | 8.89° C | 99% | 1012.3 hPa | 0 mm | - | 0 W/m² | - |
| 1777695061 | 8.89° C | 99% | 1012.3 hPa | 0 mm | - | 0 W/m² | - |
| 1777694758 | 8.89° C | 99% | 1012.3 hPa | 0 mm | - | 0 W/m² | - |
| 1777694455 | 8.89° C | 99% | 1012.1 hPa | 0 mm | - | 0 W/m² | - |
| 1777694151 | 8.89° C | 99% | 1012.2 hPa | 0 mm | - | 0 W/m² | - |
| 1777693849 | 8.89° C | 99% | 1012.1 hPa | 0 mm | - | 0 W/m² | - |
| 1777693546 | 8.89° C | 99% | 1012.1 hPa | 0 mm | - | 0 W/m² | - |
| 1777693244 | 8.89° C | 99% | 1011.8 hPa | 0 mm | - | 0 W/m² | - |
| 1777692942 | 8.89° C | 99% | 1011.9 hPa | 0 mm | - | 0 W/m² | - |
| 1777692639 | 8.89° C | 99% | 1011.9 hPa | 0 mm | - | 0 W/m² | - |
| 1777692335 | 8.89° C | 99% | 1011.7 hPa | 0 mm | - | 0 W/m² | - |
| 1777692032 | 8.89° C | 99% | 1011.7 hPa | 0 mm | - | 0 W/m² | - |
| 1777691730 | 8.89° C | 99% | 1012 hPa | 1.78 mm | - | 0 W/m² | - |
| 1777691428 | 8.89° C | 99% | 1011.8 hPa | 1.78 mm | - | 0 W/m² | - |
| 1777691126 | 8.89° C | 99% | 1011.9 hPa | 0 mm | - | 0 W/m² | - |
* Rain latest hour (hover to see other rain measurements)
** Current wind speed in m/s (hover to see current wind gust speed)